[[{"header":{"parameterUnit":"m.s-1","parameterCategory":2,"la1":30.2991,"la2":30.254,"lo1":-89.0895,"lo2":-89.0444,"dy":0.0017,"dx":0.0017,"nx":28,"ny":28,"refTime":"2024-07-20T09:00:00:Z","depth":"0","parameterNumber":2,"parameterNumberName":"U-component_of_CURRENTS"},"data":[0,0,0,0,0,0,0,0,0,0,0,0,0,0,0,0,0,0,0,0,0,0,0,0,0,0,0,0,0,0,0,0,0,0,0,0,0,0,0,0,0,0,0,0,0,0,0,0,0,0,0,0,0,0,0,0,0,0,0.0269,0.027,0,0.0288,0.0288,0.0288,0.0317,0.0318,0.0318,0.0319,0.0343,0.0343,0.0343,0,0,0,0,0,0,0,0,0,0,0,0,0,0.0218,0.0219,0.0269,0.027,0.027,0.0288,0.0288,0.0288,0.0317,0.0318,0.0319,0.0319,0.0343,0.0343,0.0343,0,0,0,0,0,0,0,0,0,0,0,0,0,0.0238,0.0219,0.0269,0.0287,0.0289,0.0288,0.0288,0.0288,0.0317,0.0318,0.0319,0.032,0.0343,0.0343,0.0343,0.0327,0,0,0.0344,0.0344,0,0,0,0,0,0,0,0,0.0237,0.024,0.0284,0.0286,0.0288,0.0302,0.0279,0.0302,0.0317,0.0306,0.0319,0.032,0.0329,0.0331,0.0332,0.0329,0.033,0.0344,0.0344,0.0344,0.0344,0,0,0,0,0,0,0,0.0236,0.0239,0.0276,0.0284,0.0286,0.028,0.0284,0.0283,0.0312,0.0307,0.0309,0.0312,0.033,0.0331,0.0332,0.033,0.0344,0.0344,0.0344,0.0344,0.0309,0.0308,0,0,0,0,0,0,0.0236,0.0238,0.0276,0.0277,0.0264,0.028,0.0285,0.0296,0.0312,0.0316,0.0311,0.0313,0.0331,0.0332,0.0333,0.0323,0.0344,0.0344,0.0344,0.031,0.0309,0.0308,0,0,0,0,0,0,0.0235,0.0239,0.0275,0.0258,0.0262,0.028,0.0292,0.0296,0.0306,0.0315,0.0319,0.0318,0.0331,0.0333,0.0332,0.0324,0.0344,0.0344,0.0311,0.031,0.0308,0.0297,0,0,0,0,0,0,0.0233,0.0239,0.0251,0.0258,0.0263,0.0277,0.0292,0.0296,0.0306,0.0309,0.0323,0.0325,0.0332,0.0332,0.0332,0.0324,0.0344,0.0313,0.031,0.0309,0.0299,0.0295,0.0292,0,0,0,0,0,0.0231,0.0242,0.0252,0.0257,0.0278,0.0277,0.0278,0.0293,0.0305,0.0306,0.0313,0.0325,0.0319,0.0331,0.0332,0.0324,0.0313,0.0311,0.0309,0.03,0.0296,0.0292,0,0,0,0,0,0,0.0229,0.0247,0.0257,0.0275,0.0277,0.0282,0.0288,0.0294,0.03,0.0307,0.0317,0.0319,0.0313,0.0315,0.0328,0.0305,0.0316,0.0314,0.0309,0.0305,0.0302,0.0317,0.0345,0,0,0,0,0,0.0233,0.0247,0.0256,0.027,0.0272,0.028,0.0284,0.029,0.0294,0.0299,0.0306,0.0307,0.03,0.0303,0.0298,0.029,0.0393,0.0282,0.0278,0.0276,0.0286,0.0422,0.0434,0.03,0.03,0.03,0,0,0.0236,0.0248,0.0257,0.027,0.0276,0.0277,0.0285,0.0289,0.029,0.0299,0.0303,0.0298,0.0295,0.0284,0.0281,0.0288,0.038,0.0273,0.0271,0.0283,0.0421,0.0435,0.0447,0.0298,0.0299,0.0299,0,0,0.0242,0.0259,0.027,0.0272,0.0279,0.0279,0.028,0.0284,0.0286,0.0282,0.0285,0.0275,0.0273,0.0265,0.0261,0.0236,0.0357,0.0231,0.0232,0.0363,0.0377,0.039,0.0605,0.0638,0.0232,0.0232,0.0232,0,0.0246,0.0264,0.027,0.0277,0.0279,0.028,0.0283,0.028,0.0282,0.0286,0.0283,0.0282,0.0263,0.0262,0.0238,0.0231,0.0367,0.025,0.0366,0.038,0.0394,0.0611,0.0647,0.0231,0.0231,0.0231,0.0231,0,0.0258,0.027,0.0274,0.0285,0.0284,0.0286,0.0281,0.028,0.0279,0.0283,0.0285,0.0267,0.0288,0.0249,0.023,0.0292,0.0384,0.0352,0.0388,0.0408,0.0634,0.0672,0.023,0.023,0.023,0.023,0,0,0.0278,0.0281,0.0286,0.0294,0.029,0.0293,0.0284,0.0284,0.0324,0.0291,0.0358,0.027,0.0298,0.0294,0.028,0.0337,0.054,0.0383,0.0391,0.0623,0.0934,0.1002,0.1051,0.0553,0.0557,0.0561,0.108,0,0.0288,0.0299,0.0294,0.0305,0.0312,0.0303,0.0311,0.0311,0.0333,0.0402,0.0367,0.0431,0.0311,0.0367,0.0392,0.0525,0.0629,0.0409,0.0857,0.0873,0.0949,0.109,0.1164,0.1631,0.1118,0.1124,0.1129,0,0.0313,0.0315,0.0323,0.0335,0.034,0.035,0.039,0.0405,0.0469,0.0507,0.0541,0.0576,0.0654,0.0567,0.08,0.0688,0.0809,0.0883,0.0905,0.0993,0.1007,0.1511,0.172,0.1623,0.1188,0.1183,0.1179,0,0.0343,0.0343,0.035,0.0352,0.0362,0.0373,0.0393,0.0439,0.0507,0.0634,0.0745,0.0807,0.0945,0.1042,0.1147,0.1045,0.1453,0.1353,0.1528,0.154,0.17,0.1714,0.1881,0.1536,0.1535,0.1533,0.1532,0,0.037,0.0382,0.0372,0.0384,0.0431,0.0423,0.0515,0.0551,0.0678,0.0804,0.0839,0.099,0.1072,0.1273,0.1316,0.1588,0.1623,0.1598,0.1681,0.17,0.1709,0.1702,0.1633,0.1553,0.1549,0.1545,0.1542,0,0.0421,0.0403,0.0428,0.0437,0.0454,0.0503,0.0612,0.07,0.0808,0.1006,0.1081,0.126,0.1534,0.1624,0.188,0.1881,0.2071,0.214,0.2192,0.2266,0.228,0.2209,0.2406,0.2374,0.2486,0.2491,0.2495,0,0.0449,0.0465,0.0491,0.0535,0.055,0.0623,0.0695,0.0776,0.0893,0.1151,0.1278,0.1587,0.179,0.2223,0.232,0.2556,0.2334,0.2726,0.2465,0.2355,0.2339,0.2108,0.2046,0.2737,0.2743,0.2747,0.2751,0,0.0526,0.0536,0.0562,0.0655,0.0723,0.08,0.0909,0.1012,0.1138,0.1314,0.1598,0.1793,0.2196,0.2469,0.2738,0.2844,0.2637,0.2827,0.2712,0.2563,0.2335,0.232,0.2358,0.2792,0.2788,0.2785,0.2783,0.2781,0.0622,0.0661,0.0719,0.0807,0.0877,0.0987,0.1083,0.1203,0.1394,0.1661,0.1798,0.2105,0.2459,0.2856,0.2926,0.3097,0.2938,0.3074,0.3029,0.2823,0.2665,0.2809,0.3281,0.328,0.3279,0.3278,0.3277,0,0.0787,0.0814,0.0885,0.0991,0.1092,0.1097,0.1242,0.1341,0.1552,0.1804,0.2045,0.2444,0.2769,0.298,0.3276,0.3276,0.3074,0.3249,0.2933,0.2881,0.3083,0.2952,0.3373,0.3373,0.3373,0.3373,0.3373,0.3373,0.0895,0.1002,0.1011,0.1183,0.1248,0.1386,0.1468,0.1582,0.1755,0.2077,0.2325,0.2515,0.281,0.3217,0.334,0.3319,0.303,0.3043,0.2891,0.3004,0.2978,0.2954,0.2809,0.3193,0.3192,0.2612,0.2608,0.2605]},{"header":{"parameterUnit":"m.s-1","parameterCategory":2,"la1":30.2991,"la2":30.254,"lo1":-89.0895,"lo2":-89.0444,"dy":0.0017,"dx":0.0017,"nx":28,"ny":28,"refTime":"2024-07-20T09:00:00:Z","depth":"0","parameterNumber":3,"parameterNumberName":"V-component_of_CURRENTS"},"data":[0,0,0,0,0,0,0,0,0,0,0,0,0,0,0,0,0,0,0,0,0,0,0,0,0,0,0,0,0,0,0,0,0,0,0,0,0,0,0,0,0,0,0,0,0,0,0,0,0,0,0,0,0,0,0,0,0,0,-0.0206,-0.0206,0,-0.0237,-0.0238,-0.0238,-0.0237,-0.0236,-0.0236,-0.0235,-0.0226,-0.0227,-0.0227,0,0,0,0,0,0,0,0,0,0,0,0,0,-0.0131,-0.0132,-0.0206,-0.0206,-0.0207,-0.0237,-0.0238,-0.0238,-0.0237,-0.0236,-0.0236,-0.0235,-0.0226,-0.0227,-0.0227,0,0,0,0,0,0,0,0,0,0,0,0,0,-0.0163,-0.0133,-0.0206,-0.021,-0.021,-0.0237,-0.0238,-0.0238,-0.0237,-0.0236,-0.0236,-0.0235,-0.0226,-0.0227,-0.0227,-0.0242,0,0,-0.0228,-0.0228,0,0,0,0,0,0,0,0,-0.0161,-0.0166,-0.0209,-0.0209,-0.021,-0.0232,-0.0208,-0.0237,-0.0237,-0.0227,-0.0235,-0.0235,-0.0225,-0.0225,-0.0233,-0.0241,-0.0241,-0.0228,-0.0228,-0.0228,-0.0228,0,0,0,0,0,0,0,-0.0159,-0.0164,-0.0218,-0.0209,-0.021,-0.0205,-0.0209,-0.0214,-0.0229,-0.0228,-0.0228,-0.0231,-0.0225,-0.0233,-0.0233,-0.0241,-0.0228,-0.0228,-0.0228,-0.0228,-0.0244,-0.0244,0,0,0,0,0,0,-0.0157,-0.0163,-0.0217,-0.0219,-0.0183,-0.0207,-0.0211,-0.0226,-0.0229,-0.023,-0.0232,-0.0231,-0.0233,-0.0233,-0.0233,-0.0264,-0.0228,-0.0228,-0.0228,-0.0243,-0.0244,-0.0244,0,0,0,0,0,0,-0.0155,-0.0162,-0.0216,-0.0191,-0.0197,-0.0209,-0.0225,-0.0227,-0.0234,-0.0233,-0.0232,-0.0237,-0.0233,-0.0232,-0.024,-0.0263,-0.0228,-0.0229,-0.0243,-0.0244,-0.0244,-0.0317,0,0,0,0,0,0,-0.0153,-0.0162,-0.0173,-0.0191,-0.0199,-0.0239,-0.0226,-0.0228,-0.0238,-0.0237,-0.0238,-0.0236,-0.0232,-0.0239,-0.024,-0.0262,-0.0229,-0.0243,-0.0243,-0.0244,-0.0314,-0.032,-0.0324,0,0,0,0,0,-0.0151,-0.0175,-0.0174,-0.018,-0.0214,-0.0239,-0.0243,-0.0249,-0.0239,-0.0251,-0.0246,-0.0236,-0.0242,-0.024,-0.0241,-0.0264,-0.0243,-0.0243,-0.0244,-0.0312,-0.0319,-0.0324,0,0,0,0,0,0,-0.0151,-0.0177,-0.0176,-0.0207,-0.0222,-0.0239,-0.0253,-0.0251,-0.0259,-0.0256,-0.0246,-0.0245,-0.026,-0.0246,-0.0244,-0.0266,-0.0238,-0.0239,-0.029,-0.0296,-0.0301,-0.0283,-0.0229,0,0,0,0,0,-0.0156,-0.018,-0.0197,-0.0223,-0.0231,-0.024,-0.025,-0.0254,-0.0262,-0.0265,-0.0264,-0.0259,-0.0264,-0.0267,-0.0266,-0.0283,-0.0213,-0.0293,-0.0298,-0.0303,-0.0286,-0.0183,-0.0177,-0.0246,-0.0246,-0.0246,0,0,-0.0164,-0.018,-0.0194,-0.0224,-0.0235,-0.0263,-0.0245,-0.0266,-0.0289,-0.0262,-0.029,-0.028,-0.027,-0.0291,-0.0295,-0.0283,-0.0251,-0.0304,-0.0308,-0.0288,-0.0183,-0.0176,-0.0169,-0.0246,-0.0246,-0.0246,0,0,-0.0194,-0.0205,-0.0235,-0.0251,-0.0271,-0.0281,-0.0287,-0.0304,-0.0311,-0.0335,-0.0318,-0.0318,-0.033,-0.0327,-0.0327,-0.0356,-0.0281,-0.0356,-0.0373,-0.0274,-0.0267,-0.026,-0.018,-0.0165,-0.036,-0.036,-0.036,0,-0.0201,-0.0239,-0.0246,-0.0277,-0.0288,-0.0291,-0.0317,-0.0337,-0.0354,-0.0335,-0.0351,-0.0326,-0.0349,-0.0335,-0.0369,-0.037,-0.0291,-0.0358,-0.0279,-0.0271,-0.0262,-0.0181,-0.0164,-0.0364,-0.0363,-0.0363,-0.0363,0,-0.0253,-0.028,-0.0299,-0.0338,-0.0352,-0.0376,-0.0394,-0.0398,-0.0401,-0.0395,-0.0374,-0.0389,-0.0349,-0.0386,-0.0406,-0.0359,-0.0317,-0.0297,-0.0263,-0.0259,-0.0175,-0.0155,-0.0369,-0.0368,-0.0367,-0.0366,0,0,-0.0272,-0.0325,-0.033,-0.0325,-0.0379,-0.0374,-0.0418,-0.0415,-0.0355,-0.041,-0.0332,-0.0417,-0.0369,-0.0364,-0.0366,-0.0332,-0.0258,-0.0302,-0.0295,-0.0222,-0.0026,-0.0062,-0.0043,-0.0205,-0.0202,-0.0199,0.0001,0,-0.0305,-0.0351,-0.038,-0.04,-0.041,-0.0415,-0.0415,-0.0406,-0.038,-0.0303,-0.0326,-0.0258,-0.0374,-0.0314,-0.0315,-0.0235,-0.0204,-0.0314,-0.004,-0.0033,-0.0063,-0.0021,-0.0022,0.0152,0.0021,0.0024,0.0027,0,-0.0345,-0.0358,-0.0391,-0.0359,-0.0356,-0.0363,-0.0283,-0.028,-0.0207,-0.0166,-0.0131,-0.0101,-0.0084,-0.015,-0.0063,-0.0111,-0.0086,-0.0057,-0.0047,-0.0034,-0.0031,0.0132,0.0194,-0.0002,0.0058,0.0055,0.0053,0,-0.0309,-0.035,-0.0357,-0.0365,-0.0349,-0.0323,-0.0294,-0.0224,-0.0134,-0.0038,0.0078,0.0085,0.0176,0.0175,0.0148,0.0094,0.028,0.0236,0.022,0.0219,0.0294,0.0293,0.0204,0.0316,0.0316,0.0315,0.0314,0,-0.0315,-0.0307,-0.0324,-0.0314,-0.0232,-0.0247,-0.0113,-0.0069,0.0066,0.0222,0.0185,0.0338,0.0273,0.0342,0.0268,0.0307,0.0384,0.0241,0.0279,0.0263,0.0256,0.015,0.0058,0.0322,0.0321,0.0319,0.0318,0,-0.025,-0.0299,-0.0262,-0.0236,-0.0213,-0.0131,0.0013,0.0146,0.0237,0.0451,0.05,0.06,0.0673,0.0584,0.0638,0.0519,0.0459,0.0516,0.0473,0.0498,0.0251,0.0158,0.0225,0.0186,0.0553,0.0554,0.0554,0,-0.021,-0.0199,-0.0162,-0.01,-0.0078,0.0032,0.0141,0.0231,0.0389,0.062,0.0761,0.0878,0.0988,0.1011,0.0808,0.0704,0.0544,0.0638,0.0492,0.0249,0.0176,0.0119,0.0076,0.0573,0.0573,0.0574,0.0574,0,-0.0073,-0.0075,-0.0028,0.0081,0.0179,0.0305,0.0458,0.0596,0.0735,0.0908,0.1171,0.1278,0.1246,0.1154,0.0946,0.0841,0.0511,0.0641,0.044,0.0219,0.0115,0.0092,0.0402,0.0578,0.0577,0.0577,0.0577,0.0577,0.0088,0.015,0.0212,0.0314,0.0431,0.0599,0.0733,0.0898,0.1134,0.1404,0.1471,0.1658,0.1439,0.1156,0.0943,0.0505,0.0535,0.0386,0.0311,0.0288,0.0177,0.0457,0.0625,0.0625,0.0625,0.0625,0.0625,0,0.0328,0.0356,0.046,0.0599,0.0756,0.0752,0.0979,0.1116,0.1376,0.1599,0.1806,0.1833,0.1515,0.1132,0.0543,0.0228,0.0118,0.0069,-0.0029,-0.0041,0.0267,0.0181,0.0199,0.0199,0.0199,0.0199,0.0199,0.02,0.0474,0.0607,0.0607,0.0867,0.0962,0.1178,0.1293,0.1463,0.1644,0.1932,0.2077,0.2191,0.1903,0.0811,0.0051,-0.0112,-0.0346,-0.0364,-0.0462,-0.0331,-0.0309,-0.0289,-0.0397,-0.05,-0.0501,-0.0733,-0.0736,-0.0739]}],[{"header":{"parameterUnit":"m.s-1","parameterCategory":2,"la1":30.2991,"la2":30.254,"lo1":-89.0895,"lo2":-89.0444,"dy":0.0017,"dx":0.0017,"nx":28,"ny":28,"refTime":"2024-07-20T09:00:00:Z","depth":"2","parameterNumber":2,"parameterNumberName":"U-component_of_CURRENTS"},"data":[0,0,0,0,0,0,0,0,0,0,0,0,0,0,0,0,0,0,0,0,0,0,0,0,0,0,0,0,0,0,0,0,0,0,0,0,0,0,0,0,0,0,0,0,0,0,0,0,0,0,0,0,0,0,0,0,0,0,0.0032,0.0032,0,0.0037,0.0037,0.0037,0.0081,0.0083,0.0084,0.0085,0.0126,0.0126,0.0126,0,0,0,0,0,0,0,0,0,0,0,0,0,0.0008,0.0009,0.0032,0.0032,0.0032,0.0037,0.0037,0.0037,0.0081,0.0083,0.0084,0.0085,0.0126,0.0126,0.0126,0,0,0,0,0,0,0,0,0,0,0,0,0,0.0016,0.0009,0.0032,0.0055,0.0058,0.0037,0.0037,0.0037,0.0081,0.0083,0.0084,0.0086,0.0126,0.0126,0.0126,0.0091,0,0,0.0126,0.0126,0,0,0,0,0,0,0,0,0.0015,0.0016,0.0052,0.0054,0.0056,0.0061,0.0044,0.0057,0.008,0.0071,0.0085,0.0087,0.0107,0.0109,0.0104,0.0093,0.0094,0.0126,0.0126,0.0126,0.0126,0,0,0,0,0,0,0,0.0015,0.0016,0.0033,0.0052,0.0054,0.0048,0.0051,0.0046,0.0079,0.0072,0.0076,0.0077,0.0109,0.0104,0.0105,0.0095,0.0126,0.0126,0.0126,0.0126,0.0089,0.0088,0,0,0,0,0,0,0.0016,0.0016,0.0033,0.0033,0.004,0.0047,0.0051,0.0057,0.0078,0.0083,0.0075,0.0079,0.0103,0.0105,0.0107,0.0099,0.0126,0.0126,0.0126,0.009,0.0089,0.0088,0,0,0,0,0,0,0.0016,0.0018,0.0032,0.0025,0.0026,0.0046,0.0052,0.0056,0.0068,0.0081,0.0087,0.0086,0.0104,0.0107,0.0112,0.01,0.0126,0.0126,0.0091,0.009,0.0088,0.0062,0,0,0,0,0,0,0.0015,0.0018,0.0028,0.0025,0.0027,0.0022,0.0051,0.0055,0.0066,0.0071,0.0091,0.0096,0.0106,0.0112,0.0112,0.0101,0.0126,0.0093,0.0091,0.0089,0.0064,0.006,0.0056,0,0,0,0,0,0.0014,0.0014,0.0029,0.0031,0.0039,0.0021,0.0021,0.004,0.0065,0.006,0.008,0.0096,0.01,0.0111,0.0111,0.01,0.0093,0.0091,0.0089,0.0066,0.0061,0.0057,0,0,0,0,0,0,0.0011,0.0019,0.0035,0.0039,0.0034,0.0029,0.0032,0.0042,0.0052,0.0069,0.0085,0.0089,0.0089,0.0093,0.0105,0.0082,0.0098,0.0096,0.0081,0.0076,0.0072,0.0099,0.0126,0,0,0,0,0,0.0014,0.0017,0.0019,0.0022,0.0024,0.003,0.003,0.004,0.0046,0.0053,0.0066,0.0076,0.0073,0.0077,0.0076,0.0063,0.0134,0.0054,0.005,0.0047,0.0068,0.0152,0.016,0.0081,0.0081,0.0081,0,0,0.0012,0.0018,0.002,0.0021,0.0025,-0.0001,0.0035,0.0035,0.0022,0.0054,0.0052,0.0065,0.0067,0.0055,0.0054,0.0062,0.0109,0.0044,0.0041,0.0065,0.0151,0.016,0.0167,0.0079,0.0079,0.008,0,0,-0.0014,0.0018,0.0002,-0.0008,-0.0005,-0.0006,-0.0005,-0.0003,0.0016,0.0,0.0028,0.0042,0.0023,0.0036,0.0034,0.0006,0.0086,-0.0003,0.0001,0.0081,0.009,0.0098,0.0222,0.0241,-0.0006,-0.0006,-0.0006,0,-0.0015,-0.0023,-0.0007,-0.0036,-0.0028,-0.0013,-0.0027,-0.0036,-0.0032,0.0007,-0.0004,0.0018,0.0012,0.0026,0.0011,-0.0001,0.0082,0.0019,0.0081,0.009,0.0099,0.0224,0.0246,-0.0007,-0.0007,-0.0007,-0.0007,0,-0.0064,-0.0068,-0.0077,-0.01,-0.01,-0.0104,-0.0105,-0.0086,-0.0062,-0.0053,-0.0016,-0.0022,0.0018,-0.0013,-0.0017,0.0036,0.0089,0.007,0.0102,0.0107,0.0236,0.026,-0.0009,-0.0009,-0.0008,-0.0008,0,0,-0.007,-0.0099,-0.0101,-0.0086,-0.0113,-0.01,-0.0115,-0.0083,-0.0037,-0.0058,0.0013,-0.0032,0.002,0.0023,0.0031,0.0065,0.0185,0.0095,0.01,0.0235,0.042,0.0396,0.0421,0.019,0.0193,0.0195,0.0495,0,-0.0099,-0.0124,-0.0142,-0.0151,-0.0143,-0.012,-0.0123,-0.0092,-0.0057,0.0004,0.002,0.0072,0.0015,0.007,0.0088,0.0166,0.0242,0.0109,0.0381,0.039,0.0382,0.0444,0.0358,0.0611,0.0519,0.0523,0.0525,0,-0.0148,-0.0131,-0.0129,-0.0097,-0.0087,-0.0096,0.0003,0.0003,0.0065,0.0106,0.0155,0.0186,0.0247,0.0199,0.0342,0.027,0.0361,0.0399,0.0412,0.0419,0.0408,0.0585,0.0658,0.0565,0.0562,0.0559,0.0557,0,-0.01,-0.0126,-0.0087,-0.0086,-0.0065,-0.0017,0.0008,0.0061,0.011,0.0216,0.0281,0.0336,0.0427,0.0485,0.0537,0.0488,0.0703,0.0657,0.0731,0.0733,0.0727,0.0721,0.0803,0.0803,0.0802,0.0801,0.08,0,-0.0105,-0.0064,-0.0049,-0.0012,0.0059,0.0057,0.0154,0.0187,0.0254,0.0328,0.0368,0.0449,0.0507,0.0608,0.0628,0.0753,0.08,0.0773,0.081,0.0714,0.0704,0.0697,0.0681,0.0813,0.081,0.0808,0.0806,0,-0.0038,-0.0046,0.0019,0.0071,0.0087,0.0162,0.0229,0.0292,0.0356,0.0463,0.0515,0.0613,0.0767,0.0803,0.0951,0.0918,0.1001,0.1043,0.0938,0.0954,0.0974,0.0953,0.1203,0.1205,0.1206,0.1207,0.1208,0,0.0008,0.0034,0.0104,0.0129,0.0164,0.0253,0.0299,0.0356,0.0416,0.0546,0.0606,0.0792,0.0885,0.1076,0.1108,0.1208,0.115,0.1162,0.1019,0.1005,0.1017,0.0993,0.097,0.1035,0.1034,0.1034,0.1034,0,0.0111,0.013,0.0181,0.0228,0.0283,0.0345,0.0417,0.0466,0.0542,0.0612,0.0732,0.0815,0.104,0.1114,0.123,0.1226,0.1115,0.1158,0.1224,0.0903,0.0858,0.0864,0.0846,0.103,0.103,0.1031,0.1031,0.1031,0.0191,0.0235,0.0268,0.0307,0.0366,0.0419,0.0465,0.0513,0.0589,0.0672,0.0769,0.0884,0.0982,0.1146,0.1166,0.1189,0.1229,0.1132,0.113,0.1129,0.1011,0.0966,0.1142,0.1143,0.1144,0.1144,0.1145,0,0.0237,0.0273,0.0323,0.0365,0.0413,0.0454,0.0521,0.0529,0.0584,0.0705,0.0783,0.0809,0.0922,0.1041,0.1106,0.1115,0.1054,0.1048,0.0962,0.0966,0.097,0.0839,0.0928,0.0928,0.0927,0.0927,0,0,0.0272,0.0312,0.0326,0.0398,0.0431,0.0472,0.0509,0.051,0.0579,0.063,0.0724,0.0859,0.0991,0.0953,0.096,0.0978,0.0949,0.0931,0.11,0.1001,0.1004,0.1013,0.0816,0,0,0,0,0]},{"header":{"parameterUnit":"m.s-1","parameterCategory":2,"la1":30.2991,"la2":30.254,"lo1":-89.0895,"lo2":-89.0444,"dy":0.0017,"dx":0.0017,"nx":28,"ny":28,"refTime":"2024-07-20T09:00:00:Z","depth":"2","parameterNumber":3,"parameterNumberName":"V-component_of_CURRENTS"},"data":[0,0,0,0,0,0,0,0,0,0,0,0,0,0,0,0,0,0,0,0,0,0,0,0,0,0,0,0,0,0,0,0,0,0,0,0,0,0,0,0,0,0,0,0,0,0,0,0,0,0,0,0,0,0,0,0,0,0,-0.0316,-0.0317,0,-0.0344,-0.0345,-0.0345,-0.0343,-0.0343,-0.0343,-0.0342,-0.0333,-0.0333,-0.0333,0,0,0,0,0,0,0,0,0,0,0,0,0,-0.0256,-0.0258,-0.0316,-0.0317,-0.0317,-0.0344,-0.0345,-0.0345,-0.0344,-0.0343,-0.0342,-0.0342,-0.0333,-0.0333,-0.0333,0,0,0,0,0,0,0,0,0,0,0,0,0,-0.0284,-0.0258,-0.0316,-0.0319,-0.032,-0.0344,-0.0345,-0.0345,-0.0344,-0.0343,-0.0342,-0.0342,-0.0333,-0.0333,-0.0333,-0.0348,0,0,-0.0334,-0.0334,0,0,0,0,0,0,0,0,-0.0282,-0.0286,-0.0319,-0.0319,-0.032,-0.0339,-0.032,-0.0344,-0.0344,-0.0335,-0.0342,-0.0341,-0.0332,-0.0332,-0.034,-0.0347,-0.0347,-0.0334,-0.0334,-0.0334,-0.0334,0,0,0,0,0,0,0,-0.028,-0.0285,-0.0328,-0.0319,-0.032,-0.0317,-0.0321,-0.0325,-0.0336,-0.0336,-0.0336,-0.0338,-0.0332,-0.034,-0.034,-0.0347,-0.0334,-0.0334,-0.0334,-0.0335,-0.0352,-0.0352,0,0,0,0,0,0,-0.0277,-0.0283,-0.0327,-0.0329,-0.0299,-0.0319,-0.0323,-0.0334,-0.0337,-0.0337,-0.0339,-0.0338,-0.034,-0.0339,-0.0339,-0.0364,-0.0334,-0.0335,-0.0335,-0.0352,-0.0352,-0.0352,0,0,0,0,0,0,-0.0276,-0.0281,-0.0326,-0.0305,-0.0311,-0.0321,-0.0334,-0.0335,-0.0342,-0.034,-0.0339,-0.0344,-0.0339,-0.0339,-0.0345,-0.0363,-0.0335,-0.0335,-0.0351,-0.0352,-0.0352,-0.0409,0,0,0,0,0,0,-0.0275,-0.0281,-0.029,-0.0306,-0.0312,-0.0345,-0.0334,-0.0336,-0.0344,-0.0344,-0.0344,-0.0343,-0.0339,-0.0345,-0.0345,-0.0363,-0.0335,-0.0351,-0.0351,-0.0352,-0.0407,-0.0412,-0.0416,0,0,0,0,0,-0.0272,-0.0291,-0.029,-0.0296,-0.0324,-0.0346,-0.0349,-0.0354,-0.0345,-0.0356,-0.0352,-0.0342,-0.0349,-0.0346,-0.0346,-0.0364,-0.0351,-0.0351,-0.0352,-0.0405,-0.0411,-0.0416,0,0,0,0,0,0,-0.0272,-0.0293,-0.0293,-0.0317,-0.033,-0.0346,-0.0357,-0.0356,-0.0363,-0.036,-0.0351,-0.0351,-0.0363,-0.0352,-0.0349,-0.0368,-0.0346,-0.0347,-0.0386,-0.0392,-0.0396,-0.0388,-0.0335,0,0,0,0,0,-0.0275,-0.0295,-0.031,-0.033,-0.0337,-0.0346,-0.0354,-0.0358,-0.0365,-0.0367,-0.0367,-0.0364,-0.0368,-0.037,-0.0371,-0.0385,-0.035,-0.0393,-0.0397,-0.0401,-0.0393,-0.0338,-0.0336,-0.0355,-0.0355,-0.0355,0,0,-0.0282,-0.0295,-0.0307,-0.0331,-0.0341,-0.036,-0.035,-0.0368,-0.0385,-0.0365,-0.0386,-0.0382,-0.0374,-0.0392,-0.0396,-0.0384,-0.0385,-0.0402,-0.0406,-0.0395,-0.0339,-0.0337,-0.0335,-0.0355,-0.0355,-0.0355,0,0,-0.0306,-0.0316,-0.0339,-0.0351,-0.0368,-0.0373,-0.0378,-0.0394,-0.0403,-0.0427,-0.0411,-0.0414,-0.0428,-0.0423,-0.0422,-0.0448,-0.041,-0.0449,-0.0466,-0.0414,-0.0411,-0.0409,-0.0392,-0.0387,-0.045,-0.045,-0.045,0,-0.0311,-0.0339,-0.0349,-0.0371,-0.038,-0.0379,-0.04,-0.0415,-0.0431,-0.043,-0.044,-0.0436,-0.0445,-0.0439,-0.0461,-0.046,-0.0426,-0.0452,-0.0419,-0.0415,-0.0412,-0.0394,-0.0388,-0.0453,-0.0453,-0.0453,-0.0452,0,-0.0351,-0.0368,-0.0383,-0.0408,-0.0422,-0.0439,-0.0455,-0.0466,-0.0475,-0.0478,-0.0482,-0.0487,-0.047,-0.0489,-0.0495,-0.0473,-0.0459,-0.0432,-0.0406,-0.0413,-0.0395,-0.0388,-0.0457,-0.0456,-0.0455,-0.0455,0,0,-0.0373,-0.0403,-0.0409,-0.0409,-0.0438,-0.0446,-0.0479,-0.0491,-0.0474,-0.0509,-0.0489,-0.0531,-0.0504,-0.0499,-0.0491,-0.0471,-0.0452,-0.0449,-0.0445,-0.0434,-0.035,-0.0409,-0.0407,-0.0408,-0.0406,-0.0405,-0.0359,0,-0.0396,-0.0429,-0.0447,-0.0466,-0.0474,-0.0483,-0.0495,-0.0505,-0.0508,-0.0487,-0.0497,-0.047,-0.0513,-0.0485,-0.0481,-0.0452,-0.043,-0.0468,-0.0342,-0.0339,-0.0391,-0.0399,-0.0422,-0.0387,-0.0351,-0.035,-0.0349,0,-0.0426,-0.0439,-0.0463,-0.0459,-0.0463,-0.0471,-0.0458,-0.0467,-0.0449,-0.0445,-0.0432,-0.0415,-0.0413,-0.0421,-0.0394,-0.0411,-0.0384,-0.0369,-0.0366,-0.039,-0.0384,-0.0367,-0.0375,-0.0337,-0.0338,-0.0338,-0.0339,0,-0.0413,-0.0443,-0.0453,-0.0459,-0.0464,-0.0464,-0.0456,-0.0445,-0.0425,-0.0385,-0.0353,-0.0349,-0.0314,-0.0304,-0.0328,-0.0333,-0.0284,-0.0274,-0.0301,-0.0305,-0.0286,-0.0292,-0.0214,-0.0215,-0.0215,-0.0215,-0.0215,0,-0.0414,-0.0421,-0.0437,-0.0435,-0.0412,-0.0428,-0.0377,-0.0376,-0.0341,-0.0288,-0.0302,-0.0259,-0.0273,-0.0264,-0.029,-0.0303,-0.025,-0.0306,-0.0291,-0.0312,-0.0321,-0.0236,-0.024,-0.0213,-0.0213,-0.0214,-0.0214,0,-0.0384,-0.0409,-0.0402,-0.0405,-0.0399,-0.037,-0.0322,-0.028,-0.0259,-0.0188,-0.0168,-0.017,-0.0161,-0.0201,-0.0176,-0.0238,-0.0247,-0.0246,-0.0303,-0.0298,-0.0312,-0.0319,-0.0269,-0.027,-0.0271,-0.0273,-0.0273,0,-0.0364,-0.0362,-0.0359,-0.0361,-0.0358,-0.0311,-0.027,-0.0232,-0.0193,-0.0135,-0.0107,-0.0078,-0.0086,-0.0133,-0.0203,-0.026,-0.023,-0.0308,-0.033,-0.0324,-0.0314,-0.0319,-0.0324,-0.033,-0.0332,-0.0333,-0.0334,0,-0.0307,-0.0311,-0.0305,-0.031,-0.028,-0.0225,-0.0178,-0.0137,-0.0079,-0.005,-0.0019,-0.0026,-0.0063,-0.0155,-0.0249,-0.0291,-0.0321,-0.0333,-0.0265,-0.0333,-0.0383,-0.0374,-0.0376,-0.0343,-0.0342,-0.0341,-0.0341,-0.0341,-0.0262,-0.0244,-0.0253,-0.0259,-0.0227,-0.0179,-0.0121,-0.0077,-0.0018,0.0025,0.0018,0.0033,-0.0094,-0.0212,-0.0313,-0.0371,-0.0362,-0.0395,-0.039,-0.0384,-0.0419,-0.0471,-0.0455,-0.0455,-0.0455,-0.0455,-0.0454,0,-0.0249,-0.0237,-0.0219,-0.0224,-0.0205,-0.0167,-0.0093,-0.005,0.0008,0.0078,0.008,-0.0011,-0.0144,-0.0206,-0.0326,-0.0458,-0.0447,-0.0463,-0.0428,-0.0421,-0.0413,-0.0448,-0.0492,-0.0492,-0.0491,-0.0491,0,0,-0.0243,-0.0232,-0.0222,-0.0201,-0.0201,-0.0122,-0.0068,-0.0017,0.0038,0.0093,0.0146,0.0073,-0.0063,-0.0165,-0.0344,-0.0388,-0.0363,-0.0397,-0.0367,-0.0302,-0.0292,-0.0388,-0.0436,0,0,0,0,0]}],[{"header":{"parameterUnit":"m.s-1","parameterCategory":2,"la1":30.2991,"la2":30.254,"lo1":-89.0895,"lo2":-89.0444,"dy":0.0017,"dx":0.0017,"nx":28,"ny":28,"refTime":"2024-07-20T09:00:00:Z","depth":"4","parameterNumber":2,"parameterNumberName":"U-component_of_CURRENTS"},"data":[0,0,0,0,0,0,0,0,0,0,0,0,0,0,0,0,0,0,0,0,0,0,0,0,0,0,0,0,0,0,0,0,0,0,0,0,0,0,0,0,0,0,0,0,0,0,0,0,0,0,0,0,0,0,0,0,0,0,-0.0188,-0.0188,0,-0.0184,-0.0184,-0.0183,-0.0176,-0.0176,-0.0175,-0.0175,-0.0166,-0.0166,-0.0166,0,0,0,0,0,0,0,0,0,0,0,0,0,-0.0186,-0.0186,-0.0188,-0.0188,-0.0188,-0.0184,-0.0184,-0.0183,-0.0176,-0.0176,-0.0175,-0.0175,-0.0166,-0.0166,-0.0166,0,0,0,0,0,0,0,0,0,0,0,0,0,-0.0185,-0.0186,-0.0188,-0.0183,-0.0183,-0.0184,-0.0184,-0.0183,-0.0176,-0.0176,-0.0175,-0.0175,-0.0166,-0.0166,-0.0166,-0.017,0,0,-0.0166,-0.0165,0,0,0,0,0,0,0,0,-0.0185,-0.0185,-0.0184,-0.0183,-0.0183,-0.018,-0.0179,-0.0179,-0.0176,-0.0179,-0.0175,-0.0175,-0.017,-0.017,-0.017,-0.017,-0.0169,-0.0166,-0.0165,-0.0165,-0.0165,0,0,0,0,0,0,0,-0.0185,-0.0185,-0.0186,-0.0184,-0.0183,-0.018,-0.018,-0.0179,-0.0176,-0.0178,-0.0178,-0.0177,-0.017,-0.017,-0.017,-0.0169,-0.0166,-0.0165,-0.0165,-0.0165,-0.0151,-0.0151,0,0,0,0,0,0,-0.0185,-0.0185,-0.0186,-0.0186,-0.0183,-0.018,-0.018,-0.0181,-0.0176,-0.0175,-0.0177,-0.0177,-0.017,-0.017,-0.0169,-0.0162,-0.0165,-0.0165,-0.0165,-0.0152,-0.0151,-0.0151,0,0,0,0,0,0,-0.0185,-0.0186,-0.0187,-0.0185,-0.0185,-0.0181,-0.0182,-0.0181,-0.0181,-0.0175,-0.0174,-0.0178,-0.017,-0.0169,-0.0166,-0.0162,-0.0165,-0.0165,-0.0152,-0.0151,-0.0151,-0.0156,0,0,0,0,0,0,-0.0185,-0.0186,-0.0191,-0.0185,-0.0185,-0.0187,-0.0182,-0.0181,-0.0181,-0.018,-0.0175,-0.0174,-0.017,-0.0166,-0.0166,-0.0162,-0.0165,-0.0152,-0.0152,-0.0151,-0.0156,-0.0156,-0.0155,0,0,0,0,0,-0.0185,-0.0192,-0.0191,-0.0191,-0.0191,-0.0187,-0.0186,-0.0182,-0.0181,-0.0181,-0.0176,-0.0174,-0.0162,-0.0166,-0.0166,-0.0162,-0.0153,-0.0152,-0.0151,-0.0156,-0.0156,-0.0155,0,0,0,0,0,0,-0.0198,-0.0192,-0.019,-0.0197,-0.0191,-0.0185,-0.0187,-0.0184,-0.0181,-0.018,-0.0175,-0.0173,-0.0167,-0.0164,-0.0169,-0.0155,-0.0155,-0.0155,-0.0159,-0.0159,-0.0158,-0.0138,-0.0165,0,0,0,0,0,-0.0202,-0.0204,-0.0197,-0.0203,-0.02,-0.0194,-0.0193,-0.0188,-0.0184,-0.0182,-0.0178,-0.0171,-0.0165,-0.0162,-0.0156,-0.0153,-0.0147,-0.0148,-0.0148,-0.0148,-0.013,-0.0136,-0.0135,-0.0149,-0.0149,-0.0149,0,0,-0.0211,-0.0206,-0.021,-0.0205,-0.0202,-0.0193,-0.0193,-0.019,-0.0181,-0.0182,-0.0173,-0.0172,-0.0163,-0.0157,-0.0154,-0.0154,-0.014,-0.0147,-0.0147,-0.0129,-0.0136,-0.0134,-0.0133,-0.0148,-0.0148,-0.0148,0,0,-0.0219,-0.0222,-0.0222,-0.0215,-0.0206,-0.0199,-0.0198,-0.0189,-0.0184,-0.0177,-0.0172,-0.0165,-0.0161,-0.0149,-0.0144,-0.0137,-0.0138,-0.0141,-0.0122,-0.013,-0.0129,-0.0128,-0.0116,-0.0113,-0.014,-0.014,-0.014,0,-0.0229,-0.0226,-0.0222,-0.0213,-0.0209,-0.02,-0.0194,-0.0185,-0.0176,-0.0172,-0.0173,-0.0162,-0.0152,-0.0141,-0.0128,-0.0135,-0.0136,-0.0128,-0.013,-0.0129,-0.0127,-0.0115,-0.0113,-0.014,-0.014,-0.014,-0.014,0,-0.023,-0.0227,-0.0226,-0.0211,-0.0205,-0.0201,-0.0184,-0.0177,-0.0171,-0.0163,-0.0155,-0.0147,-0.0135,-0.0136,-0.0124,-0.0111,-0.0114,-0.0132,-0.0133,-0.0126,-0.0114,-0.0111,-0.0141,-0.0141,-0.0141,-0.014,0,0,-0.0253,-0.0232,-0.0231,-0.0221,-0.0204,-0.0196,-0.0181,-0.0167,-0.0152,-0.015,-0.0135,-0.0121,-0.0117,-0.0108,-0.0105,-0.0101,-0.0086,-0.0106,-0.0106,-0.0095,-0.0092,-0.0018,-0.0008,-0.0116,-0.0115,-0.0115,-0.0086,0,-0.0255,-0.0239,-0.0229,-0.0214,-0.0204,-0.019,-0.0175,-0.0158,-0.0145,-0.0126,-0.0121,-0.0107,-0.0108,-0.01,-0.0096,-0.0084,-0.008,-0.0091,-0.0096,-0.0095,-0.0033,-0.0003,-0.0114,-0.0084,-0.0083,-0.0083,-0.0082,0,-0.0256,-0.0244,-0.0229,-0.0208,-0.0203,-0.0188,-0.0163,-0.0147,-0.0119,-0.0112,-0.0102,-0.0093,-0.0068,-0.0079,-0.0063,-0.0074,-0.0071,-0.0072,-0.0072,0.0006,-0.0016,-0.0091,-0.0078,-0.0078,-0.0078,-0.0079,-0.0079,0,-0.0263,-0.0245,-0.0233,-0.0225,-0.0196,-0.0186,-0.017,-0.0142,-0.0122,-0.0097,-0.0079,-0.0071,-0.0047,-0.0058,-0.0026,-0.0053,-0.0006,-0.0054,0.0009,0.0013,-0.0064,-0.0065,-0.0049,-0.0049,-0.005,-0.005,-0.005,0,-0.0266,-0.0257,-0.0232,-0.022,-0.0198,-0.0183,-0.0154,-0.0138,-0.0106,-0.0067,-0.0067,-0.0031,-0.004,-0.0008,-0.0013,0.0037,0.0002,0.0037,0.0033,-0.0066,-0.0068,-0.0062,-0.0063,-0.0048,-0.0049,-0.0049,-0.0049,0,-0.0271,-0.0258,-0.0234,-0.0205,-0.0196,-0.0175,-0.0137,-0.0111,-0.0089,-0.0036,-0.0026,0.0011,0.0061,0.0068,0.0079,0.0078,0.0095,0.0114,0.0046,0.0033,0.0108,0.0105,0.0171,0.0174,0.0176,0.0179,0.018,0,-0.0271,-0.0259,-0.0221,-0.0196,-0.0179,-0.015,-0.0125,-0.0103,-0.0067,-0.0001,0.0033,0.0095,0.0124,0.0204,0.0193,0.0204,0.0195,0.0193,0.0124,0.0145,0.0134,0.0127,0.0121,0.0184,0.0185,0.0186,0.0186,0,-0.0264,-0.0248,-0.0223,-0.0175,-0.0142,-0.0112,-0.0072,-0.0043,0.0001,0.0016,0.0111,0.0155,0.023,0.0252,0.0287,0.0277,0.0186,0.0219,0.0212,0.0146,0.0162,0.0147,0.0138,0.0195,0.0194,0.0193,0.0193,0,-0.0251,-0.0233,-0.0193,-0.0146,-0.0105,-0.0062,-0.0053,0.001,0.0045,0.0119,0.0156,0.0217,0.0249,0.0294,0.0317,0.0339,0.0309,0.0269,0.0259,0.0249,0.0263,0.0293,0.0387,0,0,0,0,0,-0.0236,-0.0208,-0.0165,-0.0106,-0.0064,-0.0046,-0.0003,0.0007,0.005,0.0128,0.0147,0.022,0.029,0.0311,0.0347,0.0332,0.0294,0.0371,0.0238,0.0244,0.0234,0.0245,0,0,0,0,0,0,-0.0219,-0.0185,-0.016,-0.0077,-0.0037,0.0003,0.0028,0.0048,0.0096,0.0141,0.0182,0.0214,0.0277,0.0274,0.0344,0.0351,0.0267,0.0404,0.0404,0.025,0.0241,0.0233,0.024,0,0,0,0,0]},{"header":{"parameterUnit":"m.s-1","parameterCategory":2,"la1":30.2991,"la2":30.254,"lo1":-89.0895,"lo2":-89.0444,"dy":0.0017,"dx":0.0017,"nx":28,"ny":28,"refTime":"2024-07-20T09:00:00:Z","depth":"4","parameterNumber":3,"parameterNumberName":"V-component_of_CURRENTS"},"data":[0,0,0,0,0,0,0,0,0,0,0,0,0,0,0,0,0,0,0,0,0,0,0,0,0,0,0,0,0,0,0,0,0,0,0,0,0,0,0,0,0,0,0,0,0,0,0,0,0,0,0,0,0,0,0,0,0,0,-0.0051,-0.0051,0,-0.0038,-0.0038,-0.0038,-0.0053,-0.0054,-0.0054,-0.0055,-0.0072,-0.0072,-0.0072,0,0,0,0,0,0,0,0,0,0,0,0,0,-0.0115,-0.0113,-0.0051,-0.0051,-0.005,-0.0038,-0.0038,-0.0038,-0.0053,-0.0054,-0.0054,-0.0055,-0.0072,-0.0072,-0.0072,0,0,0,0,0,0,0,0,0,0,0,0,0,-0.0093,-0.0113,-0.0051,-0.0056,-0.0056,-0.0038,-0.0038,-0.0037,-0.0053,-0.0054,-0.0054,-0.0055,-0.0072,-0.0072,-0.0072,-0.0056,0,0,-0.0072,-0.0072,0,0,0,0,0,0,0,0,-0.0094,-0.0091,-0.0056,-0.0056,-0.0056,-0.0047,-0.0066,-0.0045,-0.0053,-0.0055,-0.0055,-0.0056,-0.0065,-0.0066,-0.0062,-0.0057,-0.0058,-0.0072,-0.0072,-0.0072,-0.0072,0,0,0,0,0,0,0,-0.0096,-0.0092,-0.0046,-0.0055,-0.0056,-0.0068,-0.0065,-0.0062,-0.0057,-0.0055,-0.0056,-0.0053,-0.0066,-0.0062,-0.0063,-0.0058,-0.0072,-0.0072,-0.0072,-0.0072,-0.0064,-0.0064,0,0,0,0,0,0,-0.0094,-0.0093,-0.0047,-0.0046,-0.0077,-0.0066,-0.0063,-0.005,-0.0057,-0.0058,-0.0052,-0.0054,-0.0062,-0.0063,-0.0064,-0.0044,-0.0072,-0.0072,-0.0072,-0.0064,-0.0064,-0.0064,0,0,0,0,0,0,-0.0095,-0.0089,-0.0047,-0.007,-0.0065,-0.0064,-0.0049,-0.0049,-0.0053,-0.0054,-0.0056,-0.0056,-0.0063,-0.0064,-0.0063,-0.0045,-0.0072,-0.0072,-0.0064,-0.0064,-0.0064,-0.0007,0,0,0,0,0,0,-0.0096,-0.0089,-0.0082,-0.0069,-0.0064,-0.0034,-0.0048,-0.0048,-0.0049,-0.0051,-0.0058,-0.006,-0.0063,-0.0063,-0.0063,-0.0046,-0.0071,-0.0065,-0.0064,-0.0064,-0.0009,-0.0005,-0.0001,0,0,0,0,0,-0.0099,-0.0075,-0.0082,-0.0076,-0.0052,-0.0033,-0.0031,-0.0034,-0.0049,-0.0043,-0.0052,-0.006,-0.0062,-0.0063,-0.0063,-0.0045,-0.0065,-0.0064,-0.0064,-0.0011,-0.0006,-0.0001,0,0,0,0,0,0,-0.0093,-0.0074,-0.0081,-0.0052,-0.0046,-0.0035,-0.0029,-0.0036,-0.0038,-0.0045,-0.0054,-0.0055,-0.0051,-0.0059,-0.0061,-0.0045,-0.0066,-0.0066,-0.0026,-0.0021,-0.0017,-0.0039,-0.0071,0,0,0,0,0,-0.009,-0.0072,-0.0061,-0.004,-0.0037,-0.0037,-0.0033,-0.0036,-0.0034,-0.0036,-0.0039,-0.0047,-0.0047,-0.0044,-0.0049,-0.0034,-0.0079,-0.0026,-0.0022,-0.0018,-0.0038,-0.0089,-0.0092,-0.0062,-0.0062,-0.0062,0,0,-0.0081,-0.007,-0.006,-0.0039,-0.0037,-0.0017,-0.0037,-0.0026,-0.0011,-0.0037,-0.0021,-0.0035,-0.0044,-0.0029,-0.0027,-0.0033,-0.0048,-0.0017,-0.0014,-0.0037,-0.0089,-0.0092,-0.0094,-0.0062,-0.0062,-0.0062,0,0,-0.0051,-0.0048,-0.0025,-0.0017,-0.001,-0.0006,-0.0005,0.0002,0.0002,0.0013,-0.0003,-0.001,-0.0005,-0.0004,-0.0004,0.0017,-0.0031,0.0016,0.0029,-0.0019,-0.0022,-0.0026,-0.0078,-0.0087,0.0026,0.0026,0.0026,0,-0.0044,-0.0018,-0.0016,0.0007,0.0007,-0.0,0.0015,0.003,0.0036,0.0017,0.0022,-0.0009,0.0008,0.0001,0.0024,0.0028,-0.0021,0.0018,-0.0014,-0.0019,-0.0023,-0.0077,-0.0087,0.0029,0.0028,0.0028,0.0028,0,0.0003,0.0015,0.0029,0.0052,0.0058,0.0068,0.008,0.0079,0.0068,0.0061,0.0034,0.0041,0.0008,0.0034,0.0048,0.0027,-0.0005,-0.0007,-0.0025,-0.0023,-0.0079,-0.0091,0.0033,0.0032,0.0031,0.003,0,0,0.0024,0.0055,0.0054,0.0042,0.007,0.0065,0.0096,0.0087,0.0056,0.0071,0.0024,0.0062,0.0022,0.0018,0.0022,0.0011,-0.0022,-0.0002,-0.0006,-0.0054,-0.0149,-0.0102,-0.0111,-0.0039,-0.004,-0.0042,-0.0172,0,0.0046,0.0073,0.0092,0.0096,0.0095,0.009,0.01,0.009,0.0073,0.0034,0.0026,-0.0011,0.0031,-0.0001,-0.0001,-0.0036,-0.0053,0.0012,-0.0147,-0.0152,-0.011,-0.0123,-0.0048,-0.0181,-0.0184,-0.0186,-0.0187,0,0.0072,0.0076,0.0088,0.0059,0.0056,0.0064,0.0012,0.0022,-0.0012,-0.0036,-0.0074,-0.0096,-0.0113,-0.0079,-0.0143,-0.0113,-0.0127,-0.0139,-0.0145,-0.0137,-0.0127,-0.0188,-0.0209,-0.0208,-0.0206,-0.0204,-0.0203,0,0.0036,0.0056,0.0047,0.0049,0.0043,0.0023,0.0011,-0.0018,-0.0044,-0.0098,-0.0143,-0.0183,-0.0217,-0.0249,-0.0241,-0.0217,-0.0321,-0.0297,-0.0275,-0.0273,-0.0301,-0.0297,-0.035,-0.035,-0.0349,-0.0349,-0.0349,0,0.0031,0.0013,0.002,0.0009,-0.004,-0.0029,-0.0088,-0.0109,-0.0145,-0.0185,-0.0197,-0.0238,-0.026,-0.0304,-0.03,-0.0328,-0.0378,-0.0291,-0.0305,-0.0272,-0.0263,-0.031,-0.0303,-0.0354,-0.0353,-0.0352,-0.0351,0,-0.0018,0.0004,-0.0028,-0.0046,-0.0058,-0.0104,-0.014,-0.0184,-0.0209,-0.0261,-0.0283,-0.031,-0.0358,-0.0379,-0.0433,-0.0403,-0.0436,-0.0427,-0.0408,-0.0417,-0.0347,-0.0336,-0.0445,-0.0444,-0.0444,-0.0443,-0.0443,0,-0.0048,-0.0059,-0.0088,-0.0112,-0.0123,-0.0172,-0.0204,-0.0224,-0.0249,-0.0292,-0.0317,-0.0371,-0.0381,-0.0438,-0.0449,-0.0487,-0.0451,-0.0483,-0.0385,-0.0355,-0.0359,-0.0348,-0.0338,-0.0442,-0.0442,-0.0442,-0.0442,0,-0.0131,-0.0133,-0.0159,-0.0189,-0.0224,-0.0257,-0.0287,-0.0301,-0.031,-0.034,-0.0339,-0.0351,-0.0396,-0.0415,-0.0445,-0.0456,-0.0477,-0.0478,-0.0478,-0.0386,-0.0353,-0.0355,-0.0346,-0.044,-0.0441,-0.0441,-0.0441,0,-0.0218,-0.0246,-0.026,-0.0279,-0.0312,-0.0314,-0.0325,-0.0323,-0.0338,-0.0339,-0.0341,-0.0369,-0.0387,-0.0401,-0.0431,-0.0441,-0.0418,-0.0392,-0.0395,-0.0397,-0.0314,-0.0262,-0.035,0,0,0,0,0,-0.031,-0.0317,-0.0345,-0.0353,-0.0366,-0.0363,-0.0368,-0.0359,-0.0349,-0.0338,-0.0324,-0.0347,-0.0358,-0.0379,-0.038,-0.0432,-0.0442,-0.0432,-0.0419,-0.0432,-0.0434,-0.0336,0,0,0,0,0,0,-0.0376,-0.0407,-0.0368,-0.039,-0.0386,-0.0398,-0.0384,-0.037,-0.0345,-0.0332,-0.034,-0.0332,-0.0358,-0.036,-0.0377,-0.0385,-0.0369,-0.0446,-0.0445,-0.0431,-0.0433,-0.0434,-0.0334,0,0,0,0,0]}]]